Location: Newark
(42.8481°N, 0.4872°E)
Time: 23:40:03
(UTC+00:00)

Transit 2A - Pass Details

Date: 27 October 2020
Orbit: 595 x 963 km, 66.7° (Epoch: 03 December)

Event Time Altitude Azimuth Distance (km) Brightness Sun altitude
Rises 02:06:32 0° 231° (SW) 3,619 - -46.8°
Reaches altitude 10° 02:09:13 10° 238° (WSW) 2,690 - -46.4°
Maximum altitude 02:15:15 43° 309° (NW) 1,320 - -45.4°
Exits shadow 02:20:42 12° 18° (NNE) 2,493 9.0 -44.6°
Drops below altitude 10° 02:21:11 10° 20° (NNE) 2,651 9.2 -44.5°
Sets 02:23:50 0° 27° (NNE) 3,562 10.0 -44.1°
